Location: Ames
(42.0350°N, 93.6200°W)
Time: 07:52:06
(UTC-05:00)

ISS - All Passes

Search period start: 05 July 2015 00:00
Search period end: 15 July 2015 00:00
Orbit: 398 x 403 km, 51.6° (Epoch: 04 July)

Date Brightness Start Highest point End Pass type
(mag) Time Alt. Az. Time Alt. Az. Time Alt. Az.
05 Jul - 07:29:51 10° S 07:31:47 15° SE 07:33:48 10° E daylight
05 Jul - 09:04:39 10° WSW 09:07:53 63° NNW 09:11:07 10° NE daylight
05 Jul - 10:42:23 10° WNW 10:44:46 18° NNW 10:47:08 10° NNE daylight
05 Jul - 12:19:57 10° NNW 12:22:03 16° N 12:24:11 10° NE daylight
05 Jul - 13:56:03 10° NW 13:59:07 38° NNE 14:02:10 10° E daylight
05 Jul - 15:32:37 10° WNW 15:35:26 27° SW 15:38:13 10° SSE daylight
06 Jul - 08:11:09 10° SW 08:14:22 67° SE 08:17:36 10° ENE daylight
06 Jul - 09:48:18 10° WNW 09:51:01 23° NNW 09:53:42 10° NE daylight
06 Jul - 11:26:16 10° NW 11:28:15 15° N 11:30:13 10° NE daylight
06 Jul - 13:02:39 10° NW 13:05:26 26° NNE 13:08:14 10° E daylight
06 Jul - 14:38:50 10° WNW 14:42:01 54° SW 14:45:11 10° SE daylight
07 Jul - 07:17:57 10° SSW 07:20:55 33° SE 07:23:54 10° ENE daylight
07 Jul - 08:54:18 10° W 08:57:18 33° NNW 09:00:19 10° NE daylight
07 Jul - 10:32:21 10° NW 10:34:25 15° N 10:36:28 10° NE daylight
07 Jul - 12:09:14 10° NW 12:11:41 19° NNE 12:14:10 10° ENE daylight
07 Jul - 13:45:15 10° NW 13:48:30 76° NNE 13:51:44 10° ESE daylight
07 Jul - 15:23:01 10° WSW 15:24:32 12° SW 15:25:55 10° SSW daylight
08 Jul - 06:25:18 10° S 06:27:31 17° SE 06:29:48 10° E daylight
08 Jul - 08:00:28 10° WSW 08:03:39 56° NNW 08:06:52 10° NE daylight
08 Jul - 09:38:16 10° WNW 09:40:35 18° NNW 09:42:53 10° NNE daylight
08 Jul - 11:15:43 10° NNW 11:17:53 16° N 11:20:03 10° NE daylight
08 Jul - 12:51:47 10° NW 12:54:55 42° NNE 12:58:00 10° ESE daylight
08 Jul - 14:28:28 10° W 14:31:10 24° SW 14:33:48 10° S daylight
09 Jul - 07:06:51 10° SW 07:10:05 78° SE 07:13:20 10° ENE daylight
09 Jul - 08:44:09 10° WNW 08:46:47 22° NNW 08:49:25 10° NE daylight
09 Jul - 10:22:02 10° NW 10:24:02 15° N 10:26:01 10° NE daylight
09 Jul - 11:58:21 10° NW 12:01:12 28° NNE 12:04:04 10° E daylight
09 Jul - 13:34:35 10° WNW 13:37:43 47° SW 13:40:50 10° SE daylight
10 Jul - 06:13:32 10° SSW 06:16:35 38° SE 06:19:38 10° ENE daylight
10 Jul - 07:50:04 10° W 07:53:01 31° NNW 07:55:58 10° NE daylight
10 Jul - 09:28:08 10° NW 09:30:09 15° N 09:32:11 10° NE daylight
10 Jul - 11:04:54 10° NW 11:07:25 20° NNE 11:09:57 10° ENE daylight
10 Jul - 12:40:56 10° NW 12:44:11 87° NNE 12:47:25 10° SE daylight
10 Jul - 14:19:16 10° WSW 14:20:10 11° SW 14:20:55 10° SW daylight
11 Jul - 05:20:42 10° S 05:23:08 20° SE 05:25:37 10° E daylight
11 Jul - 06:56:09 10° WSW 06:59:19 49° NNW 07:02:30 10° NE daylight
11 Jul - 08:34:02 10° NW 08:36:17 17° N 08:38:32 10° NNE daylight
11 Jul - 10:11:22 10° NNW 10:13:35 17° N 10:15:49 10° NE daylight
11 Jul - 11:47:24 10° NW 11:50:34 47° NNE 11:53:42 10° ESE daylight
11 Jul - 13:24:13 10° W 13:26:46 21° SW 13:29:14 10° S daylight
12 Jul - 04:29:19 10° SE 04:29:44 10° SE 04:30:17 10° ESE visible
12 Jul - 06:02:27 10° SW 06:05:41 89° SSE 06:08:57 10° NE daylight
12 Jul - 07:39:52 10° WNW 07:42:26 21° NNW 07:44:59 10° NE daylight
12 Jul - 09:17:41 10° NW 09:19:42 15° N 09:21:43 10° NE daylight
12 Jul - 10:53:55 10° NW 10:56:50 30° NNE 10:59:46 10° E daylight
12 Jul - 12:30:13 10° WNW 12:33:18 40° SW 12:36:21 10° SSE daylight
13 Jul - 05:09:01 10° SSW 05:12:08 44° SE 05:15:15 10° ENE visible
13 Jul - 06:45:44 10° W 06:48:37 28° NNW 06:51:31 10° NE daylight
13 Jul - 08:23:47 10° NW 08:25:47 15° N 08:27:47 10° NE daylight
13 Jul - 10:00:26 10° NW 10:03:02 22° NNE 10:05:38 10° ENE daylight
13 Jul - 11:36:30 10° WNW 11:39:45 82° SSW 11:42:59 10° SE daylight
14 Jul - 04:16:02 10° S 04:18:38 23° SE 04:21:17 10° E visible
14 Jul - 05:51:44 10° WSW 05:54:53 44° NNW 05:58:01 10° NE daylight
14 Jul - 07:29:40 10° NW 07:31:52 17° N 07:34:04 10° NNE daylight
14 Jul - 09:06:53 10° NNW 09:09:10 17° N 09:11:27 10° NE daylight
14 Jul - 10:42:55 10° NW 10:46:06 53° NNE 10:49:17 10° ESE daylight
14 Jul - 12:19:54 10° W 12:22:15 18° SW 12:24:32 10° S daylight
